This demonstration page uses our WeatherBlox Daily Observations layout. Learn more.

38.88101, -77.10428

Hourly Observations for January 13, 2016

Temp ( °F °C ) Dew Point ( °F °C ) Humidity (%) Winds ( mph kmh ) Pressure ( in mb ) Visibility ( mi km ) Precip ( " mm )
12:52 am 00:52 Mostly Clear 27 -2.8 6 -14.4 41 41 W 14 22 30.04 1017 10 16.0934 0 0
1:52 am 01:52 Clear 25 -3.9 5 -15 42 42 WNW 12 19 30.07 1018 10 16.0934 0 0
2:52 am 02:52 Clear 24 -4.4 4 -15.6 42 42 WNW 15 24 30.1 1019 10 16.0934 0 0
3:52 am 03:52 Clear 23 -5 5 -15 46 46 W 10 17 30.13 1020 10 16.0934 0 0
4:52 am 04:52 Clear 23 -5 3 -16.1 42 42 WNW 21 33 30.14 1021 10 16.0934 0 0
5:52 am 05:52 Clear 22 -5.6 3 -16.1 44 44 WNW 12 19 30.16 1021 10 16.0934 0 0
6:52 am 06:52 Clear 21 -6.1 3 -16.1 45 45 NW 8 13 30.19 1022 10 16.0934 0 0
7:52 am 07:52 Sunny 22 -5.6 3 -16.1 44 44 WNW 8 13 30.2 1023 10 16.0934 0 0
8:52 am 08:52 Sunny 24 -4.4 4 -15.6 42 42 WNW 10 17 30.2 1023 10 16.0934 0 0
9:52 am 09:52 Mostly Sunny 25 -3.9 2 -16.7 37 37 W 9 15 30.22 1023 10 16.0934 0 0
10:52 am 10:52 Mostly Sunny 26 -3.3 2 -16.7 35 35 WNW 16 26 30.21 1023 10 16.0934 0 0
11:52 am 11:52 Mostly Sunny 28 -2.2 2 -16.7 32 32 WNW 12 19 30.17 1022 10 16.0934 0 0
12:52 pm 12:52 Partly Cloudy 29 -1.7 2 -16.7 31 31 W 13 20 30.15 1021 10 16.0934 0 0
1:52 pm 13:52 Partly Cloudy 30 -1.1 2 -16.7 30 30 NW 17 28 30.12 1020 10 16.0934 0 0
2:52 pm 14:52 Mostly Cloudy 32 0 3 -16.1 29 29 WNW 10 17 30.09 1019 10 16.0934 0 0
3:52 pm 15:52 Mostly Cloudy 31 -0.6 3 -16.1 30 30 WNW 10 17 30.11 1020 10 16.0934 0 0
4:52 pm 16:52 Mostly Cloudy 30 -1.1 3 -16.1 31 31 NW 8 13 30.11 1020 10 16.0934 0 0
5:52 pm 17:52 Mostly Cloudy 30 -1.1 3 -16.1 31 31 WNW 6 9 30.1 1019 10 16.0934 0 0
6:52 pm 18:52 Mostly Cloudy 30 -1.1 3 -16.1 31 31 SW 5 7 30.11 1020 10 16.0934 0 0
7:52 pm 19:52 Mostly Cloudy 27 -2.8 6 -14.4 41 41 N 9 15 30.11 1020 10 16.0934 0 0
8:52 pm 20:52 Mostly Cloudy 27 -2.8 4 -15.6 37 37 N 3 6 30.09 1019 10 16.0934 0 0
9:52 pm 21:52 Partly Cloudy 26 -3.3 6 -14.4 42 42 NNW 6 9 30.07 1018 10 16.0934 0 0
10:52 pm 22:52 Mostly Cloudy 28 -2.2 7 -13.9 41 41 ESE 3 6 30.08 1019 10 16.0934 0 0
11:52 pm 23:52 Cloudy 28 -2.2 7 -13.9 41 41 E 6 9 30.04 1017 10 16.0934 0 0

Powered by AerisWeather